Change the Weather History Date:

Wednesday, November 6, 2013

  Actual Average Record
Temperature  
Mean Temperature 11 °F -  
Max Temperature 15 °F 1 °F 19 °F (2002)
Min Temperature 7 °F -6 °F -22 °F (1996)
Degree Days  
Heating Degree Days 54    
Moisture  
Dew Point 12 °F    
Average Humidity 92    
Maximum Humidity 100    
Minimum Humidity 86    
Precipitation  
Precipitation 0.02 in - - ()
Sea Level Pressure  
Sea Level Pressure 29.97 in    
Wind  
Wind Speed 7 mph ()    
Max Wind Speed 10 mph    
Max Gust Speed -    
Visibility 8.7 miles    
Events Snow    
Averages and records for this station are not official NWS values.
T = Trace of Precipitation, MM = Missing Value Source: Averaged Metar Reports

Daily Weather History Graph

Daily Weather History Graph

Search for Another Location

Airport or City:

Trip Planner

Search our weather history database for the weather conditions in past years. The results will help you decide how hot, cold, wet, or windy it might be!

Date:

Astronomy

Nov. 06, 2013 Rise Set
Actual Time 11:31 AM CST 12:35 PM CST
Civil Twilight 8:44 AM CST 3:20 PM CST
Nautical Twilight 6:58 AM CST 5:06 PM CST
Astronomical Twilight 5:25 AM CST 6:38 PM CST
Moon No Moon Rise No Moon Set
Length of Visible Light 6h 36m
Length of Day
1h 04m
Waxing Crescent, 14% of the Moon is Illuminated
Nov 6
Waxing Crescent
Nov 9
First Quarter
Nov 17
Full
Nov 25
Last Quarter
Dec 2
New

Hourly Weather History & Observations

Time (CST) Temp. Windchill Dew Point Humidity Pressure Visibility Wind Dir Wind Speed Gust Speed Precip Events Conditions
12:00 AM 14 °F - 13 °F 92% 29.99 in 1 mi SW 9.2 mph - - Snow Light Snow
12:00 AM 14.0 °F 2.9 °F 12.2 °F 93% 29.99 in 1.5 mi SW 8.1 mph - N/A Snow Light Snow
1:00 AM 14.0 °F 2.9 °F 12.2 °F 93% 29.99 in 1.5 mi SW 8.1 mph - N/A Snow Light Snow
2:00 AM 15.8 °F 4.2 °F 14.0 °F 93% 29.99 in 2.5 mi SW 9.2 mph - N/A Snow Light Snow
3:00 AM 15.8 °F 6.1 °F 14.0 °F 93% 30.00 in 1.5 mi SW 6.9 mph - N/A Snow Light Snow
4:00 AM 15.8 °F 3.4 °F 14.0 °F 93% 30.00 in 2.0 mi SW 10.4 mph - N/A Snow Light Snow
5:00 AM 14.0 °F 1.2 °F 12.2 °F 93% 30.00 in 2.0 mi WSW 10.4 mph - N/A Snow Light Snow
6:00 AM 14 °F - 12 °F 89% 30.00 in 2 mi SW 8.1 mph - - Snow Light Snow
6:00 AM 14.0 °F 2.9 °F 12.2 °F 93% 30.00 in 2.5 mi SW 8.1 mph - N/A Snow Light Snow
7:00 AM 14.0 °F 5.1 °F 14.0 °F 100% 29.99 in 4.0 mi SW 5.8 mph - N/A Snow Light Snow
8:00 AM 15.8 °F 8.6 °F 14.0 °F 93% 29.99 in 6.0 mi SW 4.6 mph - N/A Snow Light Snow
9:00 AM 14.0 °F 2.0 °F 12.2 °F 93% 29.98 in 12.0 mi SW 9.2 mph - N/A Snow Light Snow
10:00 AM 14.0 °F 2.9 °F 12.2 °F 93% 29.98 in 12.0 mi SW 8.1 mph - N/A Snow Light Snow
10:41 AM - - - N/A% - 15.0 mi SSE 6.9 mph - N/A   Unknown
11:00 AM 12.2 °F 0.7 °F 10.4 °F 92% 29.97 in 12.0 mi SW 8.1 mph - N/A Snow Light Snow
12:00 PM 12 °F - 10 °F 89% 29.98 in 15 mi WSW 3.5 mph - - Snow Light Snow
12:00 PM 12.2 °F 6.1 °F 10.4 °F 92% 29.98 in 15.0 mi WSW 3.5 mph - N/A Snow Light Snow
1:00 PM 12.2 °F 0.7 °F 10.4 °F 92% 29.98 in 12.0 mi WSW 8.1 mph - N/A Snow Light Snow
2:00 PM 12.2 °F 4.3 °F 10.4 °F 92% 29.98 in 15.0 mi WSW 4.6 mph - N/A Snow Light Snow
2:33 PM - - - N/A% - 12.0 mi SW 2.3 mph - N/A   Unknown
3:00 PM 12.2 °F 0.7 °F 10.4 °F 92% 29.97 in 15.0 mi WSW 8.1 mph - N/A Snow Light Snow
3:41 PM - - - N/A% - 15.0 mi WSW 6.9 mph - N/A   Unknown
4:00 PM 14.0 °F 2.0 °F 10.4 °F 86% 29.96 in 12.0 mi WSW 9.2 mph - N/A Snow Light Snow
5:00 PM 14.0 °F 3.9 °F 12.2 °F 93% 29.95 in 12.0 mi SW 6.9 mph - N/A Snow Light Snow
6:00 PM 13 °F - 12 °F 92% 29.94 in 12 mi WSW 8.1 mph - - Snow Light Snow
6:00 PM 14.0 °F 2.9 °F 12.2 °F 93% 29.94 in 12.0 mi WSW 8.1 mph - N/A Snow Light Snow
6:40 PM - - - N/A% - 12.0 mi WSW 9.2 mph - N/A   Unknown
7:00 PM 14.0 °F 1.2 °F 12.2 °F 93% 29.93 in 12.0 mi SW 10.4 mph - N/A Snow Light Snow
8:00 PM 14.0 °F 2.0 °F 12.2 °F 93% 29.92 in 10.0 mi SW 9.2 mph - N/A Snow Light Snow
9:00 PM 14.0 °F 2.9 °F 12.2 °F 93% 29.92 in 10.0 mi SW 8.1 mph - N/A Snow Light Snow
10:00 PM 14.0 °F 2.0 °F 12.2 °F 93% 29.91 in 6.0 mi SW 9.2 mph - N/A Snow Light Snow
11:00 PM 12.2 °F 2.9 °F 10.4 °F 92% 29.90 in 4.0 mi NW 5.8 mph - N/A Snow Light Snow